Regional Weather Roundup
Issued by NWS

Home | Current Version | Previous Version | Text Only | Print | Product List | Glossary Off
Versions: 1 2 3 4 5 6 7 8 9 10 11 12 13 14 15 16 17 18 19 20 21 22 23 24 25 26 27 28 29 30 31 32 33 34 35 36 37 38 39 40 41 42 43 44 45 46 47 48 49 50

000
ASUS43 KLMK 261910
RWRKY
KENTUCKY REGIONAL WEATHER ROUNDUP
NATIONAL WEATHER SERVICE LOUISVILLE KY
200 PM EST WED NOV 26 2014

NOTE "FAIR" INDICATES FEW OR NO CLOUDS BELOW 12,000 FEET
WITH NO SIGNIFICANT WEATHER AND/OR OBSTRUCTIONS TO VISIBILITY.

KYZ001>023-026-027-061>063-070>075-262000-
WESTERN AND SOUTH CENTRAL KENTUCKY

CITY           SKY/WX    TMP DP  RH WIND       PRES   REMARKS
PADUCAH        CLOUDY    44  29  55 SE7       30.00F
HENDERSON      MOSUNNY   39  28  65 SE6       30.05F WCI  35
OWENSBORO      MOSUNNY   39  29  68 MISG      30.05F
HOPKINSVILLE   PTSUNNY   44  23  42 SE6       30.05F
BOWLING GREEN  MOSUNNY   45  25  45 VRB3      30.07F
GLASGOW        SUNNY     44  28  53 SW5       30.07F
$$

KYZ024-025-028>034-038-045-046-053-262000-
NORTH CENTRAL KENTUCKY

CITY           SKY/WX    TMP DP  RH WIND       PRES   REMARKS
LOUISVILLE/SDF PTSUNNY   44  29  55 VRB3      30.06F
LOUISVILLE/LOU MOSUNNY   42  29  59 VRB3      30.07F
FORT KNOX      SUNNY     43  27  53 CALM      30.04F
$$

KYZ035>037-039>044-047>052-055>060-089>105-262000-
NORTHEAST KENTUCKY

CITY           SKY/WX    TMP DP  RH WIND       PRES   REMARKS
LEXINGTON      MOSUNNY   42  30  62 W8        30.04F
COVINGTON      PTSUNNY   39  26  59 N3        30.05F
FRANKFORT      MOSUNNY   42  29  59 CALM      30.04F
$$

KYZ054-064>069-076>088-106>120-262000-
SOUTHEAST KENTUCKY

CITY           SKY/WX    TMP DP  RH WIND       PRES   REMARKS
JACKSON        MOSUNNY   46  28  49 CALM      30.00F
LONDON         SUNNY     48  27  44 S5        30.01F
SOMERSET       SUNNY     45  28  53 W8        30.05F
MIDDLESBORO    NOT AVBL
MONTICELLO     PTCLDY    48  27  44 W6        30.07F
$$




USA.gov is the U.S. government's official web portal to all federal, state and local government web resources and services.